Location: Poprad
(49.0500°N, 20.3000°E)
Time: 05:53:21
(UTC+01:00)

ISS - Pass Details

Date: 27 February 2019
Orbit: 406 x 411 km, 51.6° (Epoch: 23 March)

Event Time Altitude Azimuth Distance (km) Brightness Sun altitude
Exits shadow 04:45:40 19° 192° (SSW) 1,053 -1.9 -17.2°
Maximum altitude 04:47:19 29° 145° (SE) 775 -2.2 -16.9°
Drops below altitude 10° 04:50:13 10° 83° (E) 1,467 0.4 -16.4°
Sets 04:52:28 0° 72° (ENE) 2,331 1.7 -16.1°
